This is the latest recevied weather packets stored in our database for station/object SR9NLI. If no packets are shown the sender has not sent any weather packets the latest 1 day(s).
| Time | Temp. | Humidity | Pressure | Rain* | Wind** | Luminosity | Snow |
|---|---|---|---|---|---|---|---|
| 1778025828 | 16.11° C | 100% | 948.1 hPa | - | 1.79 m/s, 177° | - | - |
| 1778025705 | 16.11° C | 100% | 948.2 hPa | - | 1.79 m/s, 178° | - | - |
| 1778025581 | 16.11° C | 100% | 948.3 hPa | - | 1.79 m/s, 178° | - | - |
| 1778025521 | 16.11° C | 100% | 948.3 hPa | - | 1.79 m/s, 175° | - | - |
| 1778025458 | 16.11° C | 100% | 948.3 hPa | - | 1.79 m/s, 176° | - | - |
| 1778025335 | 16.11° C | 100% | 948.2 hPa | - | 1.79 m/s, 183° | - | - |
| 1778025212 | 16.11° C | 100% | 948.3 hPa | - | 2.24 m/s, 185° | - | - |
| 1778025152 | 16.67° C | 100% | 948.3 hPa | - | 2.68 m/s, 174° | - | - |
| 1778025090 | 16.67° C | 100% | 948.4 hPa | - | 2.68 m/s, 174° | - | - |
| 1778024967 | 16.67° C | 100% | 948.3 hPa | - | 2.68 m/s, 174° | - | - |
| 1778024844 | 16.67° C | 100% | 948.4 hPa | - | 2.68 m/s, 174° | - | - |
| 1778024783 | 16.67° C | 100% | 948.3 hPa | - | 3.13 m/s, 171° | - | - |
| 1778024720 | 16.67° C | 100% | 948.5 hPa | - | 2.24 m/s, 171° | - | - |
| 1778024597 | 16.67° C | 100% | 948.4 hPa | - | 1.79 m/s, 176° | - | - |
| 1778024474 | 16.67° C | 100% | 948.5 hPa | - | 3.13 m/s, 164° | - | - |
| 1778024413 | 16.67° C | 100% | 948.4 hPa | - | 3.13 m/s, 163° | - | - |
| 1778024350 | 16.67° C | 100% | 948.5 hPa | - | 3.58 m/s, 162° | - | - |
| 1778024227 | 16.11° C | 100% | 948.5 hPa | - | 2.24 m/s, 163° | - | - |
| 1778024105 | 15.56° C | 100% | 948.5 hPa | - | 1.79 m/s, 169° | - | - |
| 1778024044 | 15.56° C | 100% | 948.6 hPa | - | 0.89 m/s, 186° | - | - |
| 1778023981 | 15.56° C | 100% | 948.5 hPa | - | 0.89 m/s, 216° | - | - |
| 1778023859 | 15° C | 100% | 948.6 hPa | - | 1.79 m/s, 54° | - | - |
| 1778023736 | 15° C | 100% | 948.5 hPa | - | 1.79 m/s, 95° | - | - |
| 1778023675 | 15.56° C | 100% | 948.6 hPa | - | 1.79 m/s, 122° | - | - |
| 1778023612 | 15.56° C | 100% | 948.6 hPa | - | 1.34 m/s, 137° | - | - |
* Rain since midnight (hover to see other rain measurements)
** Current wind speed in m/s (hover to see current wind gust speed)